www.pogodaiklimat.ru
Время
(UTC), дата
09 8.11
12 8.11
15 8.11
18 8.11
21 8.11
00 9.11
03 9.11
06 9.11
09 9.11
12 9.11
15 9.11
18 9.11
21 9.11
00 10.11
03 10.11
06 10.11
09 10.11
12 10.11
15 10.11
18 10.11
21 10.11
00 11.11
03 11.11
06 11.11
09 11.11
12 11.11
15 11.11
18 11.11
21 11.11
00 12.11
03 12.11
06 12.11
09 12.11
12 12.11
15 12.11
18 12.11
21 12.11
00 13.11
03 13.11
06 13.11
09 13.11
12 13.11
15 13.11
18 13.11
21 13.11
00 14.11
03 14.11
06 14.11
09 14.11
12 14.11
15 14.11
18 14.11
21 14.11
00 15.11
03 15.11
06 15.11
Ветер
(напр.,м/с)
Видим. Явления Облачность Т
(С)
Тd
(С)
f
(%)
Тe
(С)
Тes
(С)
Комфортность P
(гПа)
Po
(гПа)
Тmin
(С)
Tmax
(С)
R
(мм)
R24
(мм)
S
(см)
С 6
{14}
20 км ясно -0.9 -11.4 45 -7 -7 холодно 1018.2 1015.3
С 7
{12}
20 км ясно -1.8 -10.9 50 -9 -9 очень
холодно
1016.8 1014.0
С 7
{14}
20 км ясно -2.9 -10.9 54 -10 -10 очень
холодно
1015.6 1012.7
СЗ 9-13
{14}
20 км ясно -3.2 -11.9 51 -11 -11 очень
холодно
1013.3 1010.4 -3.7 <0.5
С 9-11
{13}
20 км 8/4 1000 м
[Sc Ac trans Ci fib]
-4.4 -11.7 57 -13 -13 очень
холодно
1012.5 1009.6 -4.7
С 5
{11}
4000 м слаб. ливневой снег 10/8 1000 м
[Cb cap As op]
-3.2 -9.6 61 -10 -10 очень
холодно
1011.5 1008.6
штиль 0
{8}
4000 м слаб. ливневой снег 10/8 1000 м
[Cb cap As op]
-2.9 -8.2 67 -4 -4 прохладно 1009.8 1006.9
СЗ 4
{7}
4000 м слаб. ливневой снег 10/8 1000 м
[Cb cap As op]
-4.7 -7.4 81 -11 -11 очень
холодно
1009.1 1006.2 -2.4 0.6
Ю 2
{6}
10 км {ливн. осадки} 10/8 1050 м
[Cb cap Ac und]
-5.1 -7.8 81 -9 -9 очень
холодно
1009.4 1006.5
штиль 0
{4}
10 км {ливн. осадки} 10/8 800 м
[Cb cap Ac und]
-5.0 -7.9 80 -6 -6 холодно 1009.9 1007.0
штиль 0
{3}
10 км 10/5 600 м
[Cb cap Ac und]
-4.5 -8.0 77 -5 -5 холодно 1009.8 1006.9
С 2
{3}
10 км 10/6 700 м
[Cb cap Ac und]
-3.8 -8.3 71 -8 -8 очень
холодно
1010.5 1007.6 -5.2 0.0 <0.5
штиль 0
{3}
10 км 10/6 600 м
[Cb cap Ac und]
-4.5 -8.1 76 -5 -5 холодно 1011.0 1008.1 -5.2
штиль 0
{4}
10 км 10/6 600 м
[Cb cap Ac und]
-3.2 -7.7 71 -4 -4 прохладно 1011.3 1008.4
СЗ 4
{6}
20 км ясно -5.5 -9.2 75 -12 -12 очень
холодно
1011.5 1008.6
С 4
{8}
20 км 8/0
[Ac trans]
-4.7 -9.3 70 -11 -11 очень
холодно
1011.5 1008.6 -3.0
штиль 0
{7}
20 км 10/6 1000 м
[Cb cap Ac und]
-2.9 -7.4 71 -4 -4 прохладно 1012.2 1009.3
С 6
{9}
20 км 10/10 1000 м
[Cb cap]
-0.4 -4.3 75 -7 -7 холодно 1012.4 1009.6
С 7-10
{11}
20 км 10/10 1000 м
[Cb cap]
+0.4 -3.7 74 -6 -6 холодно 1011.9 1009.1
С 8-10
{11}
20 км 10/10 1000 м
[Cb cap]
+1.7 -1.9 77 -5 -5 холодно 1012.1 1009.3 -5.4 <0.5
С 8-12
{12}
10 км 10/8 960 м
[Cb cap Ac und]
+1.3 -2.9 74 -6 -6 холодно 1012.6 1009.8 -5.4
С 7-10
{13}
10 км 10/8 930 м
[Cb cap Ac und]
+1.1 -3.6 71 -5 -5 холодно 1012.8 1010.0
С 7-10
{12}
10 км 10/8 960 м
[Cb cap Ac und]
+0.1 -4.7 70 -7 -7 холодно 1012.7 1009.9
С 6-10
{11}
10 км 10/8 930 м
[Cb cap Ac und]
-0.4 -4.9 72 -7 -7 холодно 1013.0 1010.2 +2.7
С 6-11
{11}
4000 м слаб. ливневой снег 10/8 600 м
[Cb cap Ac und]
+0.3 -4.2 72 -6 -6 холодно 1012.5 1009.7
СЗ 8-12
{14}
10 км в посл. час ливневой снег 10/8 960 м
[Cb cap Ac und]
+0.6 -4.8 67 -6 -6 холодно 1012.0 1009.2
С 11-16
{16}
10 км 10/8 930 м
[Cb cap Ac und]
+0.1 -6.1 63 -8 -8 очень
холодно
1011.3 1008.5
С 6-11
{16}
10 км 10/8 1020 м
[Cb cap Ac und]
+1.1 -5.0 64 -5 -5 холодно 1011.4 1008.6 -0.6 0.3 <0.5
СЗ 6
{12}
10 км 10/8 1000 м
[Cb cap Ac und]
+0.6 -2.9 77 -6 -6 холодно 1012.1 1009.3 -0.6
С 6
{13}
10 км 10/8 1000 м
[Cb cap Ac und]
+1.4 -4.7 64 -4 -4 прохладно 1012.0 1009.2
СЗ 8-12
{14}
10 км 9/6 1000 м
[Cb cap Ac trans]
+2.2 -5.2 58 -4 -4 прохладно 1011.3 1008.5
С 10-15
{17}
10 км 9/8 1000 м
[Cb cap Ac trans]
+2.4 -5.0 58 -4 -4 прохладно 1011.5 1008.7 +2.4
СЗ 8-15
{16}
10 км 9/8 1000 м
[Cb cap Ac trans]
+3.2 -4.5 57 -3 -3 прохладно 1011.9 1009.1
С 9-15
{18}
10 км в посл. час ливневой снег 8/6 1000 м
[Cb cap Ac trans]
+1.9 -4.8 61 -5 -5 холодно 1012.0 1009.2
С 8-15
{18}
10 км 10/8 1000 м
[Cb cap As op]
+2.0 -5.9 56 -4 -4 прохладно 1012.3 1009.5
СЗ 9-15
{19}
4000 м слаб. ливневой снег 10/8 600 м
[Cb cap As op]
-0.1 -4.0 75 -8 -8 очень
холодно
1013.9 1011.1 -0.1 0.0 <0.5
С 9-14
{15}
1000 м ливневой снег {метель} 10/8 600 м
[Cb cap As op]
-0.3 -4.6 73 -8 -8 очень
холодно
1015.6 1012.8 -5.5
С 9-12
{14}
4000 м слаб. ливневой снег {метель} 10/8 600 м
[Cb cap As op]
0.0 -4.6 71 -8 -8 очень
холодно
1016.1 1013.3
С 10-16
{17}
4000 м слаб. ливневой снег {метель} 10/8 600 м
[Cb cap As op]
-0.1 -5.7 66 -8 -8 очень
холодно
1016.6 1013.8
СЗ 9-17
{19}
4000 м слаб. ливневой снег {метель} 10/8 600 м
[Cb cap As op]
-0.5 -6.5 64 -8 -8 очень
холодно
1018.2 1015.3 +0.5 0.8
СЗ 7-13
{19}
10 км позёмок 10/8 600 м
[Cb cap Ac und]
-0.5 -7.1 61 -7 -7 холодно 1019.6 1016.7
С 10-15
{18}
10 км позёмок {ливн. осадки} 10/5 600 м
[Cb cap Ac trans Ci sp]
-1.0 -8.5 57 -9 -9 очень
холодно
1020.6 1017.7
С 9-14
{16}
10 км позёмок 10/3 1000 м
[Cb cap Cs]
-2.2 -10.3 54 -10 -10 очень
холодно
1022.6 1019.7
С 7-10
{15}
10 км {метель} 10/3 1000 м
[Cb cap Cs]
-3.1 -10.9 55 -10 -10 очень
холодно
1024.7 1021.8 -3.1 0.0 3
С 5
{14}
20 км 8/0
[Ci fib]
-3.5 -12.4 50 -10 -10 очень
холодно
1026.1 1023.2 -3.8
З 2
{10}
20 км 10/0
[Cs]
-2.7 -15.4 37 -6 -6 холодно 1027.2 1024.3
штиль 0
{8}
20 км 8/0
[Ci fib]
-5.7 -15.2 47 -6 -6 холодно 1027.9 1025.0
С 8-11
{12}
20 км ясно -5.5 -15.1 47 -14 -14 очень
холодно
1028.7 1025.8 -2.6
С 7-10
{13}
20 км ясно -5.8 -13.9 53 -14 -14 очень
холодно
1029.0 1026.1
С 6
{10}
20 км ясно -5.7 -13.5 54 -13 -13 очень
холодно
1027.5 1024.6
С 7-12
{12}
20 км ясно -5.2 -12.6 56 -13 -13 очень
холодно
1026.1 1023.2
С 6
{13}
20 км ясно -5.4 -12.6 57 -13 -13 очень
холодно
1024.9 1022.0 -6.8 2
С 7-11
{14}
20 км ясно -4.3 -11.3 58 -12 -12 очень
холодно
1023.3 1020.4 -6.8
С 9-16
{17}
20 км ясно -2.5 -10.8 53 -10 -10 очень
холодно
1021.0 1018.1
СЗ 9-15
{17}
20 км позёмок ясно -3.1 -10.7 56 -11 -11 очень
холодно
1019.8 1016.9
С 8-15
{16}
20 км позёмок ясно -2.8 -10.4 56 -11 -11 очень
холодно
1018.9 1016.0 -2.3
Местоположение метеостанции Эгвекинот (Чукотка, Россия): широта 66.35 долгота -179.00 высота над уровнем моря 22 м.
В архиве по умолчанию представлена погода в Эгвекиноте за последнюю неделю. Архивные данные за месяц целиком и за предыдущие месяцы, начиная с января 2011 года, Вы можете получить, выбрав интересующий диапазон дат из раскрывающегося списка и нажав кнопку "Найти!".
*Определитесь, кто Вы:
Внимание! Время в таблицах - всемирное. Для получения местного времени необходимо прибавить поправку, которая равна 12 ч.
Смотрите также архив погоды в соседних городах и на ближайших метеорологических станциях:
Партнеры нашего сайта:      
Пояснения к столбцам:
  • Ветер - указаны скорость ветра в м/с - средняя за 10 мин, порывы в срок и между сроками (в фигурных скобках) и направление, откуда дует ветер: С - северный,
  • СВ - северо-восточный, В - восточный, ЮВ - юго-восточный, Ю - южный, ЮЗ - юго-западный, З - западный, СЗ - северо-западный.
  • Видимость - горизонтальная дальность видимости в метрах или километрах. При видимости от 1 до 10 км при отсутствии осадков обычно наблюдается дымка, при ухудшении видимости до 1 км и менее - туман. В сухую погоду видимость может ухудшаться дымом, пылью или мглою.
  • Явления - указаны атмосферные явления, наблюдавшиеся в срок или в последний час перед сроком; фигурными скобками обозначены явления, наблюдавшиеся между сроками (за 1-3 часа до срока); квадратными скобками обозначены град или гололедные отложения с указанием их диаметра в мм.
  • Облачность - указаны через наклонную черту общая и нижняя облачность в баллах и высота нижней границы облаков в метрах; квадратными скобками обозначены формы облаков: Ci - перистые, Cs - перисто-слоистые, Cc - перисто-кучевые, Ac - высококучевые, As - высокослоистые, Sc - слоисто-кучевые, Ns - слоисто-дождевые, Cu - кучевые, Cb - кучево-дождевые. Подробнее классификацию облаков см. в Атласе облаков (PDF).
  • T - Температура воздуха - температура, измеренная на высоте 2 м над землей.
  • Td - Температура точки росы - температура, при понижении до которой содержащийся в воздухе водяной пар достигнет насыщения.
  • f - Относительная влажность воздуха - влажноcть воздуха, измеренная на высоте 2 м над землей.
  • Te - Эффективная температура - температура, которую ощущает одетый по сезону человек в тени. Характеристика душности погоды. При расчете учитывается влияние влажности воздуха и скорости ветра на теплоощущения человека.
  • Tes - Эффективная температура на солнце - температура, которую ощущает человек, с поправкой на солнечный нагрев. Характеристика знойности погоды. Зависит от высоты солнца над горизонтом, облачности и скорости ветра. Ночью, в пасмурную погоду, а также при ветре 12 м/с и более поправка равна нулю.
  • P - Атмосферное давление - приведенное к уровню моря атмосферное давление.
  • Po - Атмосферное давление - измеренное на уровне метеостанции атмосферное давление.
  • Tmin - Минимальная температура - минимум температуры воздуха на высоте 2 м над землей.
  • Tmax - Максимальная температура - максимум температуры воздуха на высоте 2 м над землей.
  • R - Количество осадков - Количество выпавших осадков за период времени, мм. При наведении курсора мыши на число - период времени, за который выпало указанное количество осадков.
  • R24 - Количество осадков - Количество выпавших осадков за 24 часа, мм.
  • S - Снежный покров - Высота снежного покрова, см. При наведении курсора мыши на число - состояние снежного покрова и степень покрытия местности в баллах.